User: anonymous   Login
Location: Prague
(50.0830°N, 14.4670°E)
Time: 11:57:35
(UTC+01:00)
Language:

RS-15 - Orbit

View from above orbital plane
View from above orbital plane
View from above satellite
View from above satellite

Ground track
Ground track

The orbit data is extracted from the following two-line orbital elements,

1 23439U 94085A   21334.90838249 -.00000037  00000-0  15882-3 0  9991
2 23439  64.8125 106.7409 0165224 306.4644  52.1149 11.27570440109107
Epoch (UTC): 30 November 2021 21:48:04
Eccentricity: 0.0165224
inclination: 64.8125°
perigee height: 1883 km
apogee height: 2161 km
right ascension of ascending node: 106.7409°
argument of perigee: 306.4644°
revolutions per day: 11.27570440
mean anomaly at epoch: 52.1149°
orbit number at epoch: 10910

The dashed part of the orbit path shows where the satellite is in the earth's shadow,  

DLR